[[{"header":{"parameterUnit":"m.s-1","parameterCategory":1,"la1":30.2991,"la2":30.254,"lo1":-89.0895,"lo2":-89.0444,"dy":0.0017,"dx":0.0017,"nx":28,"ny":28,"refTime":"2024-02-27T09:00:00:Z","depth":0,"parameterNumber":2,"parameterNumberName":"U-component_of_WINDS"},"data":[0,0,0,0,0,0,0,0,0,0,0,0,0,0,0,0,0,0,0,0,0,0,0,0,0,0,0,0,0,0,0,0,0,0,0,0,0,0,0,0,0,0,0,0,0,0,0,0,0,0,0,0,0,0,0,0,0,0,-0.2354,-0.2354,0,-0.2346,-0.2346,-0.2346,-0.2337,-0.2337,-0.2337,-0.2337,-0.2328,-0.2328,-0.2328,0,0,0,0,0,0,0,0,0,0,0,0,0,-0.2361,-0.2361,-0.2354,-0.2354,-0.2354,-0.2346,-0.2346,-0.2346,-0.2337,-0.2337,-0.2337,-0.2337,-0.2328,-0.2328,-0.2328,0,0,0,0,0,0,0,0,0,0,0,0,0,-0.2356,-0.2361,-0.2354,-0.2349,-0.2348,-0.2346,-0.2346,-0.2346,-0.2337,-0.2337,-0.2337,-0.2337,-0.2328,-0.2328,-0.2328,-0.233,0,0,-0.2327,-0.2327,0,0,0,0,0,0,0,0,-0.2356,-0.2356,-0.235,-0.2349,-0.2348,-0.2342,-0.2345,-0.234,-0.2337,-0.2341,-0.2337,-0.2337,-0.2333,-0.2332,-0.2331,-0.233,-0.2329,-0.2327,-0.2327,-0.2327,-0.2327,0,0,0,0,0,0,0,-0.2357,-0.2356,-0.2351,-0.2349,-0.2349,-0.2346,-0.2345,-0.2344,-0.2338,-0.2341,-0.234,-0.2339,-0.2332,-0.2331,-0.2331,-0.2329,-0.2327,-0.2327,-0.2327,-0.2327,-0.2328,-0.2329,0,0,0,0,0,0,-0.2358,-0.2357,-0.2351,-0.2351,-0.2352,-0.2346,-0.2345,-0.2344,-0.2338,-0.2337,-0.234,-0.2339,-0.2332,-0.2331,-0.233,-0.2332,-0.2327,-0.2327,-0.2326,-0.2328,-0.2328,-0.2329,0,0,0,0,0,0,-0.2358,-0.2358,-0.2351,-0.2353,-0.2352,-0.2346,-0.2346,-0.2344,-0.2343,-0.2337,-0.2336,-0.234,-0.2331,-0.2331,-0.233,-0.2332,-0.2326,-0.2326,-0.2328,-0.2328,-0.2328,-0.2336,0,0,0,0,0,0,-0.2358,-0.2358,-0.2359,-0.2353,-0.2352,-0.2352,-0.2346,-0.2344,-0.2343,-0.2342,-0.2337,-0.2336,-0.2331,-0.233,-0.233,-0.2332,-0.2326,-0.2328,-0.2328,-0.2328,-0.2336,-0.2337,-0.2338,0,0,0,0,0,-0.2359,-0.2362,-0.2359,-0.2358,-0.2354,-0.2352,-0.2351,-0.2346,-0.2343,-0.2344,-0.234,-0.2336,-0.2332,-0.233,-0.233,-0.2331,-0.2328,-0.2328,-0.2328,-0.2336,-0.2337,-0.2338,0,0,0,0,0,0,-0.2367,-0.2361,-0.2358,-0.2359,-0.2356,-0.235,-0.2351,-0.2348,-0.2345,-0.2344,-0.2338,-0.2337,-0.2337,-0.2334,-0.2333,-0.2333,-0.2329,-0.2329,-0.2335,-0.2336,-0.2337,-0.2337,-0.2326,0,0,0,0,0,-0.2369,-0.2369,-0.2363,-0.2364,-0.2363,-0.2357,-0.2356,-0.2353,-0.2349,-0.2348,-0.2344,-0.234,-0.2338,-0.2337,-0.2335,-0.2336,-0.2334,-0.2336,-0.2337,-0.2338,-0.2338,-0.2338,-0.2339,-0.233,-0.233,-0.233,0,0,-0.2374,-0.237,-0.237,-0.2366,-0.2363,-0.2362,-0.2356,-0.2356,-0.2355,-0.2348,-0.2347,-0.2344,-0.2339,-0.2339,-0.2339,-0.2337,-0.234,-0.2338,-0.2339,-0.2339,-0.2338,-0.2339,-0.234,-0.233,-0.233,-0.233,0,0,-0.238,-0.2378,-0.2379,-0.2376,-0.2372,-0.2368,-0.2368,-0.2363,-0.236,-0.2359,-0.2354,-0.2352,-0.2349,-0.2346,-0.2344,-0.2349,-0.2345,-0.2349,-0.2353,-0.2353,-0.2353,-0.2354,-0.2355,-0.2356,-0.2349,-0.2349,-0.2349,0,-0.2386,-0.2384,-0.2379,-0.2379,-0.2377,-0.2371,-0.2371,-0.2369,-0.2364,-0.2363,-0.236,-0.2356,-0.2352,-0.2351,-0.2352,-0.2351,-0.2351,-0.2349,-0.2354,-0.2354,-0.2355,-0.2356,-0.2356,-0.2349,-0.2349,-0.2349,-0.2349,0,-0.2391,-0.239,-0.2391,-0.2387,-0.2385,-0.2385,-0.2379,-0.2378,-0.2375,-0.2371,-0.237,-0.2365,-0.2362,-0.2361,-0.2358,-0.236,-0.2358,-0.2355,-0.2351,-0.2356,-0.2357,-0.2357,-0.235,-0.235,-0.235,-0.235,0,0,-0.2403,-0.2396,-0.2396,-0.2394,-0.2389,-0.2387,-0.2387,-0.2384,-0.2382,-0.2379,-0.2378,-0.2375,-0.2372,-0.237,-0.2366,-0.2366,-0.2369,-0.2362,-0.2362,-0.2363,-0.237,-0.2372,-0.2373,-0.2366,-0.2366,-0.2366,-0.237,0,-0.2409,-0.2408,-0.2403,-0.2403,-0.2401,-0.2395,-0.2394,-0.2391,-0.2387,-0.2385,-0.2381,-0.2379,-0.2375,-0.2374,-0.2373,-0.2369,-0.237,-0.2368,-0.2365,-0.2365,-0.2366,-0.2373,-0.2376,-0.2379,-0.237,-0.237,-0.237,0,-0.2415,-0.2412,-0.2412,-0.2407,-0.2406,-0.2405,-0.2401,-0.24,-0.2395,-0.2393,-0.239,-0.2386,-0.2384,-0.238,-0.2378,-0.2377,-0.2375,-0.2372,-0.2372,-0.2372,-0.2368,-0.2372,-0.238,-0.2381,-0.2371,-0.2371,-0.2371,0,-0.2423,-0.2419,-0.2419,-0.2417,-0.241,-0.241,-0.2407,-0.2403,-0.2401,-0.2398,-0.2396,-0.2393,-0.2391,-0.2388,-0.2382,-0.238,-0.238,-0.2376,-0.2377,-0.2377,-0.2377,-0.2377,-0.2385,-0.2377,-0.2377,-0.2377,-0.2377,0,-0.243,-0.243,-0.2422,-0.2422,-0.2421,-0.2416,-0.2415,-0.2412,-0.2408,-0.2406,-0.2401,-0.2399,-0.2392,-0.239,-0.2385,-0.2383,-0.2383,-0.238,-0.2379,-0.238,-0.2381,-0.2379,-0.2378,-0.2377,-0.2377,-0.2377,-0.2377,0,-0.2438,-0.2433,-0.2432,-0.2426,-0.2425,-0.2424,-0.2419,-0.2418,-0.2414,-0.2412,-0.2411,-0.2405,-0.2402,-0.2396,-0.2391,-0.2388,-0.2387,-0.2385,-0.2388,-0.2388,-0.2389,-0.2389,-0.2395,-0.2396,-0.2388,-0.2388,-0.2388,0,-0.2442,-0.2442,-0.2436,-0.2435,-0.2432,-0.243,-0.2428,-0.2423,-0.2421,-0.2415,-0.2415,-0.2411,-0.2408,-0.2403,-0.2398,-0.2394,-0.2392,-0.2394,-0.2391,-0.2392,-0.2391,-0.2391,-0.2391,-0.2395,-0.2395,-0.2395,-0.2395,0,-0.245,-0.2448,-0.2445,-0.2442,-0.244,-0.2437,-0.2433,-0.2432,-0.2426,-0.2424,-0.242,-0.2418,-0.2413,-0.2409,-0.2404,-0.2401,-0.2397,-0.2396,-0.2396,-0.2397,-0.2399,-0.2398,-0.239,-0.2396,-0.2396,-0.2396,-0.2396,-0.2396,-0.2456,-0.2456,-0.2451,-0.2449,-0.2446,-0.2442,-0.2441,-0.2437,-0.2434,-0.243,-0.2426,-0.2423,-0.2418,-0.2412,-0.2408,-0.2405,-0.2404,-0.2404,-0.2404,-0.2404,-0.2404,-0.24,-0.2405,-0.2405,-0.2405,-0.2405,-0.2404,0,-0.2463,-0.246,-0.2458,-0.2453,-0.2451,-0.2447,-0.2443,-0.2442,-0.2439,-0.2435,-0.2432,-0.2428,-0.2424,-0.2418,-0.2414,-0.2413,-0.2411,-0.2412,-0.2412,-0.2411,-0.2406,-0.2406,-0.2413,-0.2413,-0.2413,-0.2413,-0.2413,-0.2413,-0.2467,-0.2465,-0.2462,-0.2459,-0.2456,-0.2453,-0.2451,-0.2448,-0.2444,-0.244,-0.2437,-0.2434,-0.2429,-0.2424,-0.242,-0.2418,-0.2417,-0.2418,-0.2416,-0.2412,-0.2411,-0.241,-0.241,-0.2418,-0.2418,-0.2421,-0.2421,-0.2421]},{"header":{"parameterUnit":"m.s-1","parameterCategory":1,"la1":30.2991,"la2":30.254,"lo1":-89.0895,"lo2":-89.0444,"dy":0.0017,"dx":0.0017,"nx":28,"ny":28,"refTime":"2024-02-27T09:00:00:Z","depth":0,"parameterNumber":3,"parameterNumberName":"V-component_of_WINDS"},"data":[0,0,0,0,0,0,0,0,0,0,0,0,0,0,0,0,0,0,0,0,0,0,0,0,0,0,0,0,0,0,0,0,0,0,0,0,0,0,0,0,0,0,0,0,0,0,0,0,0,0,0,0,0,0,0,0,0,0,4.6604,4.6605,0,4.6712,4.6713,4.6714,4.6735,4.6734,4.6733,4.6732,4.6838,4.6841,4.6845,0,0,0,0,0,0,0,0,0,0,0,0,0,4.6413,4.6416,4.6604,4.6605,4.6607,4.6711,4.6713,4.6714,4.6735,4.6734,4.6733,4.6732,4.6837,4.6841,4.6845,0,0,0,0,0,0,0,0,0,0,0,0,0,4.6505,4.6417,4.6604,4.663,4.6633,4.6711,4.6713,4.6715,4.6735,4.6734,4.6733,4.6732,4.6835,4.6841,4.6846,4.6904,0,0,4.6862,4.6865,0,0,0,0,0,0,0,0,4.65,4.6512,4.6625,4.6628,4.6632,4.6709,4.6684,4.6778,4.6736,4.6696,4.6732,4.6731,4.6796,4.6804,4.6827,4.6909,4.6914,4.6863,4.6866,4.6868,4.687,0,0,0,0,0,0,0,4.6494,4.6508,4.6646,4.6626,4.6631,4.6635,4.6647,4.6702,4.6751,4.67,4.6701,4.6714,4.6797,4.6822,4.683,4.6915,4.6863,4.6867,4.6871,4.6873,4.7052,4.7054,0,0,0,0,0,0,4.6483,4.6502,4.6643,4.665,4.6562,4.6639,4.6653,4.6685,4.6751,4.676,4.6715,4.6715,4.6813,4.6823,4.6833,4.6908,4.6868,4.6873,4.6877,4.7051,4.7053,4.7054,0,0,0,0,0,0,4.6479,4.6496,4.6639,4.6577,4.6595,4.6644,4.6681,4.6688,4.6713,4.6763,4.6771,4.6731,4.6813,4.6826,4.6887,4.6912,4.6876,4.6881,4.7049,4.7051,4.7053,4.7056,0,0,0,0,0,0,4.6473,4.6494,4.6517,4.6577,4.6598,4.6692,4.6682,4.6691,4.6722,4.6723,4.678,4.6788,4.6813,4.6879,4.6893,4.6918,4.6885,4.7047,4.705,4.7053,4.7054,4.7058,4.7061,0,0,0,0,0,4.6467,4.6512,4.6519,4.6535,4.6629,4.6693,4.6705,4.6734,4.6724,4.6748,4.678,4.6787,4.6906,4.6885,4.6901,4.6928,4.7046,4.7049,4.7052,4.7052,4.7057,4.7061,0,0,0,0,0,0,4.6452,4.6521,4.6528,4.6595,4.6638,4.6697,4.6727,4.6738,4.6783,4.6782,4.6813,4.6826,4.6886,4.6913,4.6888,4.6989,4.6975,4.6982,4.697,4.6975,4.6979,4.6972,4.6889,0,0,0,0,0,4.6457,4.6505,4.6561,4.6615,4.6636,4.6678,4.6707,4.6725,4.6771,4.6789,4.6826,4.6868,4.6916,4.6947,4.6993,4.7057,4.7071,4.7084,4.7088,4.7091,4.7096,4.7134,4.7141,4.7066,4.7066,4.7065,0,0,4.6467,4.651,4.6538,4.6613,4.6649,4.6697,4.6693,4.6744,4.678,4.6796,4.6858,4.6886,4.6935,4.6999,4.7029,4.7023,4.712,4.7095,4.7097,4.7101,4.7138,4.7146,4.7152,4.7068,4.7067,4.7067,0,0,4.6511,4.6548,4.6598,4.6634,4.6689,4.6717,4.6729,4.6786,4.6806,4.6868,4.6882,4.6924,4.7005,4.7041,4.7069,4.7128,4.7136,4.7141,4.7162,4.7198,4.7204,4.721,4.7232,4.724,4.7147,4.7147,4.7147,0,4.6516,4.6591,4.6621,4.6672,4.6705,4.6724,4.6774,4.6807,4.6874,4.6896,4.6889,4.6992,4.7026,4.71,4.7114,4.7136,4.7151,4.7136,4.7201,4.7207,4.7213,4.7235,4.7243,4.7147,4.7147,4.7147,4.7147,0,4.6595,4.6647,4.668,4.6747,4.6783,4.6833,4.687,4.6903,4.6918,4.6946,4.701,4.7052,4.7108,4.7126,4.714,4.7202,4.7197,4.7195,4.7182,4.722,4.7241,4.725,4.7148,4.7148,4.7148,4.7148,0,0,4.6633,4.6717,4.6729,4.6761,4.6823,4.6863,4.6914,4.6971,4.6999,4.7043,4.7088,4.7156,4.7156,4.7188,4.7206,4.7238,4.7284,4.7232,4.7234,4.7242,4.7356,4.7358,4.7368,4.7288,4.729,4.7291,4.7352,0,4.6686,4.678,4.681,4.6888,4.6936,4.6955,4.6999,4.7042,4.7069,4.7114,4.7143,4.7192,4.7187,4.7207,4.7239,4.7271,4.7307,4.7267,4.733,4.7332,4.7319,4.7378,4.7381,4.7436,4.736,4.7362,4.7363,0,4.676,4.681,4.6893,4.6952,4.6973,4.7013,4.7068,4.711,4.7159,4.7176,4.7214,4.723,4.7283,4.7266,4.734,4.7312,4.7339,4.7359,4.7362,4.737,4.7351,4.739,4.7455,4.7464,4.7376,4.7375,4.7374,0,4.6783,4.6869,4.6931,4.6957,4.7026,4.7054,4.7083,4.7131,4.7164,4.7211,4.7233,4.7285,4.7314,4.7353,4.7383,4.7367,4.7455,4.744,4.7472,4.7471,4.7491,4.7489,4.7562,4.7505,4.7504,4.7504,4.7504,0,4.684,4.6891,4.6943,4.6981,4.7039,4.7071,4.7127,4.7157,4.7199,4.7243,4.7261,4.7301,4.7337,4.7382,4.7405,4.7464,4.7476,4.7492,4.7498,4.7492,4.749,4.7511,4.7509,4.7507,4.7506,4.7506,4.7505,0,4.6875,4.6912,4.6981,4.7041,4.7057,4.7097,4.7148,4.7186,4.7214,4.7269,4.7284,4.7328,4.7382,4.7415,4.7483,4.7498,4.7564,4.7567,4.7549,4.7552,4.7582,4.758,4.7673,4.7688,4.7618,4.7619,4.7619,0,4.691,4.695,4.7015,4.7047,4.7078,4.7128,4.7163,4.7195,4.723,4.729,4.732,4.7376,4.7422,4.7507,4.7545,4.7597,4.7603,4.7632,4.7611,4.7604,4.7606,4.7604,4.7609,4.7636,4.7636,4.7637,4.7637,0,4.6969,4.6986,4.7036,4.7092,4.7133,4.7179,4.7224,4.7249,4.7289,4.7327,4.7384,4.742,4.7491,4.7546,4.7602,4.7631,4.7641,4.7644,4.7654,4.7649,4.7638,4.7647,4.7561,4.7642,4.7641,4.7641,4.7641,4.7641,4.7007,4.7044,4.7097,4.7152,4.719,4.7232,4.7271,4.7306,4.7354,4.7416,4.7431,4.7491,4.7539,4.7616,4.7646,4.7692,4.7688,4.7702,4.7707,4.771,4.7712,4.7629,4.7702,4.7702,4.7702,4.7702,4.7702,0,4.7069,4.7104,4.7154,4.7219,4.7262,4.7269,4.732,4.7356,4.7409,4.7454,4.75,4.7565,4.7619,4.7661,4.7716,4.7746,4.7752,4.7759,4.7758,4.7765,4.7712,4.7699,4.7754,4.7754,4.7754,4.7754,4.7753,4.7753,4.7107,4.7171,4.7194,4.7277,4.7311,4.7372,4.7401,4.744,4.7476,4.7549,4.7595,4.7623,4.7666,4.7725,4.7775,4.7786,4.7806,4.7813,4.7825,4.7774,4.7769,4.7764,4.7751,4.7816,4.7816,4.7875,4.7875,4.7875]}]]